This demonstration page uses our WeatherBlox Daily Observations layout. Learn more.

Hourly Observations for July 1, 2017

Temp ( °F °C ) Dew Point ( °F °C ) Humidity (%) Winds ( mph kmh ) Pressure ( in mb ) Visibility ( mi km ) Precip ( " mm )
12:54 am 00:54 Clear 64 17.8 59 15 84 84 WNW 3 6 30.02 1017 10 16.0934 0 0
1:54 am 01:54 Clear 63 17.2 59 15 87 87 WSW 3 6 30.01 1016 10 16.0934 0 0
2:54 am 02:54 Clear 63 17.2 57 13.9 81 81 W 3 6 30.01 1016 10 16.0934 0 0
3:54 am 03:54 Clear 62 16.7 57 13.9 84 84 WSW 5 7 30 1016 10 16.0934 0 0
4:54 am 04:54 Clear 61 16.1 56 13.3 84 84 Calm 30.01 1016 10 16.0934 0 0
5:54 am 05:54 Clear 60 15.6 56 13.3 86 86 WNW 3 6 30.03 1017 10 16.0934 0 0
6:54 am 06:54 Sunny 60 15.6 56 13.3 86 86 S 3 6 30.06 1018 10 16.0934 0 0
7:54 am 07:54 Sunny 63 17.2 57 13.9 81 81 SW 3 6 30.06 1018 10 16.0934 0 0
8:54 am 08:54 Sunny 69 20.6 58 14.4 68 68 Calm 30.07 1018 10 16.0934 0 0
9:54 am 09:54 Sunny 71 21.7 59 15 66 66 VRB 3 6 30.07 1018 10 16.0934 0 0
10:54 am 10:54 Sunny 75 23.9 58 14.4 55 55 WSW 3 6 30.06 1018 10 16.0934 0 0
11:54 am 11:54 Sunny 79 26.1 59 15 50 50 VRB 5 7 30.05 1018 10 16.0934 0 0
12:54 pm 12:54 Sunny 81 27.2 59 15 47 47 W 12 19 30.04 1017 10 16.0934 0 0
1:54 pm 13:54 Sunny 83 28.3 57 13.9 41 41 WSW 15 24 30.03 1017 10 16.0934 0 0
2:54 pm 14:54 Sunny 85 29.4 59 15 42 42 W 12 19 30.01 1016 10 16.0934 0 0
3:54 pm 15:54 Sunny 86 30 59 15 40 40 WSW 10 17 29.99 1016 10 16.0934 0 0
4:54 pm 16:54 Sunny 85 29.4 60 15.6 43 43 WSW 9 15 29.96 1015 10 16.0934 0 0
5:54 pm 17:54 Sunny 86 30 59 15 40 40 SW 13 20 29.95 1014 10 16.0934 0 0
6:54 pm 18:54 Sunny 86 30 60 15.6 42 42 WSW 9 15 29.95 1014 10 16.0934 0 0
7:54 pm 19:54 Sunny 82 27.8 63 17.2 53 53 S 8 13 29.95 1014 10 16.0934 0 0
8:54 pm 20:54 Cloudy 79 26.1 65 18.3 62 62 S 8 13 29.95 1014 10 16.0934 0 0
9:54 pm 21:54 Mostly Cloudy 80 26.7 63 17.2 56 56 SE 7 11 29.96 1015 10 16.0934 0 0
10:54 pm 22:54 Mostly Clear 76 24.4 63 17.2 64 64 S 10 17 29.97 1015 10 16.0934 0 0
11:54 pm 23:54 Clear 73 22.8 63 17.2 71 71 S 9 15 29.97 1015 10 16.0934 0 0

Powered by AerisWeather